Weather in Malyachkino

Russia / Samara Oblast     53°23′24″N   48°35′30″E
temp.,
°C
wind,
m/s
gust,
m/s
humid.,
%
clouds,
%
prec.,
mm/h
press.,
hPa
HPBL,
m
28 february, sun
sun2801:00−15nnw6129098 0.0 1004459
04:00−15nnw7139098 0.1 1006442
07:00−18nw6139280 0.0 1008344
10:00−17nw7129179 0.0 1009364
13:00−14nw6108978 0.0 1010473
16:00−12nw6108886 0.0 1011573
19:00−14nw41092100 0.0 1014390
22:00−16nw4994100 0.1 1016244
1 march, mon
mon101:00−18nw339694 0.0 101764
04:00−20nw349859 0.0 101954
07:00−21nw339851 0.0 102143
10:00−17nw379343 0.0 1023270
13:00−13nw469074 0.0 1023411
16:00−11nw468981 0.0 1023421
19:00−15w119417 0.0 102220
22:00−15sw239542 0.0 102222
2 march, tue
tue201:00−13sw369377 0.0 1019142
04:00−10sw5129389 0.0 1015357
07:00−7sw61294100 0.6 1011523
10:00−3wsw71492100 1.1 1008672
13:000wsw71297100 1.0 1005763
16:00+1w510100100 1.4 1004515
19:00−1w489198 0.2 1003154
22:00−4wnw479289 0.3 1004147
3 march, wed
wed301:00−6wnw48934 0.0 1004141
04:00−8wnw369414 0.0 1005117
07:00−9wnw349642 0.0 100552
10:00−5nw579661 0.0 1006337
13:00−3nw579099 0.0 1007603
16:00−2nw588699 0.1 1008778
19:00−7nw498861 0.0 1009153
22:00−9nw499232 0.0 1011163
4 march, thu
thu401:00−10wnw49940 0.0 1011155
04:00−11wnw49935 0.0 1012148
07:00−11w479122 0.0 1011135
10:00−6wsw7138940 0.0 1010509
13:00−3wsw8138798 0.0 1006834
16:000sw9148599 0.1 1004961
19:00−1wsw91785100 0.0 1001930
22:00−1wsw81588100 0.0 1001913